Location: Chiroubles
(46.1812°N, 4.6660°E)
Time: 02:07:30
(UTC+00:00)

Cosmos 1607 - Pass Details

Date: 15 August 2020
Orbit: 911 x 991 km, 65.0° (Epoch: 19 September)

Event Time Altitude Azimuth Distance (km) Brightness Sun altitude
Rises 23:38:06 0° 324° (NW) 3,691 7.8 -30.1°
Reaches altitude 10° 23:40:41 10° 325° (NW) 2,748 7.0 -30.2°
Maximum altitude 23:47:10 78° 52° (NE) 1,016 4.0 -30.2°
Enters shadow 23:47:26 76° 80° (E) 1,022 4.0 -30.2°
